[[{"header":{"parameterUnit":"m.s-1","parameterCategory":1,"la1":30.2991,"la2":30.254,"lo1":-89.0895,"lo2":-89.0444,"dy":0.0017,"dx":0.0017,"nx":28,"ny":28,"refTime":"2024-08-15T09:00:00:Z","depth":0,"parameterNumber":2,"parameterNumberName":"U-component_of_WINDS"},"data":[0,0,0,0,0,0,0,0,0,0,0,0,0,0,0,0,0,0,0,0,0,0,0,0,0,0,0,0,0,0,0,0,0,0,0,0,0,0,0,0,0,0,0,0,0,0,0,0,0,0,0,0,0,0,0,0,0,0,-2.1041,-2.1041,0,-2.1069,-2.1069,-2.107,-2.1039,-2.1038,-2.1037,-2.1036,-2.1068,-2.107,-2.1072,0,0,0,0,0,0,0,0,0,0,0,0,0,-2.0964,-2.0966,-2.1041,-2.1041,-2.1041,-2.1069,-2.1069,-2.107,-2.1039,-2.1038,-2.1037,-2.1035,-2.1067,-2.1069,-2.1072,0,0,0,0,0,0,0,0,0,0,0,0,0,-2.0995,-2.0966,-2.1041,-2.103,-2.1029,-2.1069,-2.1069,-2.107,-2.104,-2.1038,-2.1036,-2.1035,-2.1066,-2.1069,-2.1072,-2.1125,0,0,-2.1081,-2.1082,0,0,0,0,0,0,0,0,-2.0994,-2.0998,-2.1031,-2.103,-2.103,-2.1049,-2.1054,-2.1089,-2.104,-2.1036,-2.1036,-2.1034,-2.1063,-2.1066,-2.1075,-2.1127,-2.1128,-2.1081,-2.1083,-2.1084,-2.1085,0,0,0,0,0,0,0,-2.0992,-2.0997,-2.1052,-2.1031,-2.1031,-2.1024,-2.1027,-2.106,-2.1059,-2.1036,-2.1034,-2.1037,-2.1062,-2.1073,-2.1076,-2.1129,-2.1081,-2.1084,-2.1086,-2.1087,-2.1227,-2.1229,0,0,0,0,0,0,-2.099,-2.0995,-2.1051,-2.1053,-2.1007,-2.1027,-2.103,-2.1044,-2.1059,-2.1059,-2.1039,-2.1036,-2.1069,-2.1073,-2.1077,-2.1141,-2.1084,-2.1087,-2.1089,-2.1225,-2.1227,-2.1229,0,0,0,0,0,0,-2.0989,-2.0995,-2.105,-2.1024,-2.103,-2.103,-2.1047,-2.1046,-2.1056,-2.1061,-2.1061,-2.1049,-2.1067,-2.1073,-2.1114,-2.1141,-2.1088,-2.1091,-2.1222,-2.1226,-2.1228,-2.1268,0,0,0,0,0,0,-2.0987,-2.0995,-2.1014,-2.1024,-2.1031,-2.1085,-2.1049,-2.1048,-2.1061,-2.1057,-2.1071,-2.1071,-2.1066,-2.1109,-2.1117,-2.1144,-2.1093,-2.122,-2.1224,-2.1227,-2.1265,-2.1272,-2.1279,0,0,0,0,0,-2.0984,-2.1025,-2.1015,-2.1022,-2.1055,-2.1087,-2.1091,-2.1084,-2.1063,-2.1083,-2.1086,-2.1071,-2.1137,-2.1114,-2.1122,-2.1151,-2.1218,-2.1223,-2.1227,-2.1261,-2.1271,-2.1279,0,0,0,0,0,0,-2.1019,-2.1026,-2.1016,-2.1061,-2.1073,-2.1081,-2.1106,-2.1094,-2.1113,-2.1109,-2.1101,-2.1104,-2.1147,-2.1153,-2.1127,-2.1204,-2.1175,-2.1181,-2.1198,-2.1207,-2.1214,-2.1212,-2.1096,0,0,0,0,0,-2.1032,-2.1056,-2.1061,-2.1101,-2.1107,-2.1106,-2.1119,-2.1113,-2.1126,-2.1131,-2.1137,-2.1152,-2.1176,-2.1192,-2.1214,-2.1266,-2.1269,-2.129,-2.1297,-2.1303,-2.1308,-2.1337,-2.1346,-2.1244,-2.1244,-2.1244,0,0,-2.106,-2.1066,-2.1082,-2.1108,-2.1117,-2.1143,-2.1111,-2.1139,-2.1159,-2.1136,-2.1174,-2.118,-2.1195,-2.1242,-2.1262,-2.1248,-2.1337,-2.1309,-2.1313,-2.1315,-2.1342,-2.1352,-2.1361,-2.1247,-2.1246,-2.1246,0,0,-2.1122,-2.113,-2.1163,-2.1173,-2.1187,-2.1186,-2.1194,-2.1204,-2.1206,-2.1245,-2.1229,-2.1252,-2.1294,-2.1306,-2.1317,-2.1386,-2.1372,-2.1394,-2.1431,-2.1459,-2.1467,-2.1474,-2.1499,-2.1508,-2.1399,-2.1399,-2.1399,0,-2.1155,-2.1192,-2.1183,-2.1212,-2.1225,-2.1205,-2.124,-2.125,-2.1271,-2.1281,-2.1264,-2.1316,-2.1325,-2.1374,-2.1391,-2.1401,-2.1411,-2.1392,-2.1466,-2.1474,-2.148,-2.1504,-2.1513,-2.1402,-2.1401,-2.1401,-2.1401,0,-2.1231,-2.1258,-2.1283,-2.1303,-2.1319,-2.1351,-2.1348,-2.1365,-2.1358,-2.1359,-2.1399,-2.1409,-2.1434,-2.1445,-2.1438,-2.1494,-2.1484,-2.1468,-2.1438,-2.1492,-2.1514,-2.1523,-2.1405,-2.1404,-2.1404,-2.1403,0,0,-2.1317,-2.1331,-2.1341,-2.1349,-2.1364,-2.1384,-2.1417,-2.1439,-2.1455,-2.147,-2.1498,-2.1534,-2.1518,-2.1531,-2.1526,-2.1551,-2.1605,-2.1531,-2.1531,-2.1544,-2.1667,-2.168,-2.169,-2.1596,-2.1598,-2.1599,-2.1666,0,-2.138,-2.1434,-2.1427,-2.1479,-2.1504,-2.1486,-2.1514,-2.1527,-2.1529,-2.1551,-2.1554,-2.158,-2.1557,-2.1565,-2.1589,-2.1593,-2.163,-2.1588,-2.1623,-2.1624,-2.1619,-2.1702,-2.1715,-2.1778,-2.1675,-2.1676,-2.1677,0,-2.146,-2.1477,-2.1532,-2.1543,-2.1553,-2.1578,-2.1599,-2.162,-2.1635,-2.1635,-2.165,-2.1641,-2.1675,-2.1645,-2.1692,-2.1664,-2.1678,-2.1682,-2.1685,-2.1687,-2.1654,-2.1707,-2.1797,-2.1807,-2.1691,-2.169,-2.1689,0,-2.1517,-2.1554,-2.1592,-2.16,-2.1614,-2.1632,-2.1639,-2.1651,-2.1666,-2.1685,-2.1694,-2.1718,-2.173,-2.1749,-2.1747,-2.1725,-2.1795,-2.1765,-2.1797,-2.1797,-2.1812,-2.1811,-2.1906,-2.1821,-2.1821,-2.1821,-2.1821,0,-2.1588,-2.1622,-2.1617,-2.1641,-2.1679,-2.1672,-2.171,-2.1715,-2.1726,-2.1751,-2.1738,-2.1761,-2.1757,-2.1781,-2.178,-2.1819,-2.1825,-2.1827,-2.1826,-2.1828,-2.1828,-2.1837,-2.1833,-2.1823,-2.1823,-2.1822,-2.1822,0,-2.1658,-2.1656,-2.1696,-2.1705,-2.1708,-2.1736,-2.1745,-2.1768,-2.1769,-2.1801,-2.1808,-2.181,-2.1838,-2.1838,-2.187,-2.1869,-2.1918,-2.1912,-2.1913,-2.1911,-2.1944,-2.1941,-2.2047,-2.2061,-2.1968,-2.1969,-2.1969,0,-2.1703,-2.1729,-2.1741,-2.1756,-2.1764,-2.1788,-2.1803,-2.1797,-2.1813,-2.1832,-2.1853,-2.1879,-2.19,-2.1946,-2.1951,-2.1976,-2.1971,-2.2007,-2.1975,-2.1976,-2.1972,-2.197,-2.1973,-2.2013,-2.2014,-2.2015,-2.2016,0,-2.1784,-2.1782,-2.1803,-2.1824,-2.1841,-2.1858,-2.1873,-2.1887,-2.1883,-2.1902,-2.193,-2.1946,-2.1978,-2.2005,-2.2029,-2.2038,-2.2027,-2.2026,-2.2035,-2.2037,-2.2036,-2.2037,-2.193,-2.2023,-2.2023,-2.2022,-2.2022,-2.2021,-2.1844,-2.1866,-2.1878,-2.1902,-2.1912,-2.1927,-2.1949,-2.1952,-2.1975,-2.2,-2.1996,-2.2027,-2.2043,-2.2073,-2.2084,-2.2109,-2.2097,-2.211,-2.2113,-2.2116,-2.212,-2.2032,-2.2114,-2.2114,-2.2114,-2.2113,-2.2113,0,-2.1924,-2.1931,-2.1953,-2.1974,-2.1993,-2.198,-2.1996,-2.2014,-2.2041,-2.2055,-2.2076,-2.2109,-2.2135,-2.2143,-2.2168,-2.2187,-2.2183,-2.2194,-2.2193,-2.2195,-2.2129,-2.2119,-2.2197,-2.2197,-2.2197,-2.2197,-2.2197,-2.2197,-2.1968,-2.2005,-2.2005,-2.2047,-2.2054,-2.2084,-2.2094,-2.2108,-2.2119,-2.2156,-2.2177,-2.2182,-2.2194,-2.222,-2.2244,-2.2246,-2.2257,-2.227,-2.227,-2.2208,-2.22,-2.2192,-2.2182,-2.2272,-2.2272,-2.2334,-2.2334,-2.2335]},{"header":{"parameterUnit":"m.s-1","parameterCategory":1,"la1":30.2991,"la2":30.254,"lo1":-89.0895,"lo2":-89.0444,"dy":0.0017,"dx":0.0017,"nx":28,"ny":28,"refTime":"2024-08-15T09:00:00:Z","depth":0,"parameterNumber":3,"parameterNumberName":"V-component_of_WINDS"},"data":[0,0,0,0,0,0,0,0,0,0,0,0,0,0,0,0,0,0,0,0,0,0,0,0,0,0,0,0,0,0,0,0,0,0,0,0,0,0,0,0,0,0,0,0,0,0,0,0,0,0,0,0,0,0,0,0,0,0,4.8849,4.8849,0,4.8857,4.8857,4.8857,4.8868,4.8869,4.8869,4.8869,4.8875,4.8875,4.8875,0,0,0,0,0,0,0,0,0,0,0,0,0,4.8843,4.8843,4.8849,4.8849,4.8849,4.8857,4.8857,4.8857,4.8868,4.8869,4.8869,4.8869,4.8875,4.8875,4.8875,0,0,0,0,0,0,0,0,0,0,0,0,0,4.8847,4.8843,4.8849,4.8856,4.8856,4.8857,4.8857,4.8857,4.8868,4.8869,4.8869,4.8869,4.8875,4.8875,4.8875,4.8869,0,0,4.8875,4.8875,0,0,0,0,0,0,0,0,4.8847,4.8848,4.8855,4.8855,4.8856,4.8862,4.8857,4.8861,4.8868,4.8864,4.8869,4.8869,4.8871,4.8871,4.8872,4.8869,4.887,4.8875,4.8875,4.8875,4.8875,0,0,0,0,0,0,0,4.8847,4.8847,4.8852,4.8855,4.8856,4.8858,4.8859,4.8858,4.8865,4.8864,4.8865,4.8866,4.8871,4.8872,4.8872,4.887,4.8875,4.8875,4.8875,4.8875,4.8863,4.8863,0,0,0,0,0,0,4.8846,4.8847,4.8852,4.8852,4.8852,4.8858,4.8859,4.886,4.8865,4.8867,4.8866,4.8866,4.8872,4.8872,4.8872,4.8865,4.8875,4.8875,4.8875,4.8863,4.8863,4.8863,0,0,0,0,0,0,4.8845,4.8846,4.8851,4.885,4.8851,4.8858,4.8858,4.886,4.886,4.8866,4.8868,4.8865,4.8872,4.8872,4.887,4.8866,4.8875,4.8875,4.8864,4.8863,4.8863,4.8851,0,0,0,0,0,0,4.8845,4.8846,4.8844,4.885,4.8851,4.8849,4.8858,4.886,4.8861,4.8862,4.8866,4.8867,4.8872,4.887,4.887,4.8866,4.8875,4.8864,4.8863,4.8863,4.8852,4.8851,4.8849,0,0,0,0,0,4.8845,4.884,4.8844,4.8844,4.8848,4.8849,4.885,4.8856,4.886,4.8858,4.8862,4.8867,4.8866,4.887,4.887,4.8866,4.8864,4.8864,4.8863,4.8853,4.8851,4.8849,0,0,0,0,0,0,4.8832,4.8841,4.8845,4.8842,4.8845,4.8851,4.8848,4.8853,4.8855,4.8856,4.8863,4.8864,4.886,4.8863,4.8866,4.886,4.8866,4.8865,4.8858,4.8857,4.8855,4.8854,4.8875,0,0,0,0,0,4.8829,4.883,4.8837,4.8833,4.8834,4.8841,4.8842,4.8846,4.8849,4.885,4.8854,4.8857,4.8857,4.8857,4.8858,4.8853,4.8854,4.885,4.8849,4.8847,4.8846,4.8844,4.8842,4.886,4.886,4.886,0,0,4.8823,4.8827,4.8827,4.8831,4.8834,4.8833,4.8842,4.8841,4.8841,4.885,4.8848,4.8851,4.8855,4.8851,4.885,4.8853,4.8842,4.8846,4.8845,4.8845,4.8843,4.8841,4.884,4.886,4.886,4.886,0,0,4.8811,4.8814,4.8812,4.8815,4.8819,4.8824,4.8823,4.8829,4.8831,4.883,4.8837,4.8836,4.8837,4.8839,4.884,4.883,4.8834,4.883,4.8822,4.8819,4.8818,4.8817,4.8813,4.8811,4.8829,4.8829,4.8829,0,4.8802,4.8802,4.881,4.8809,4.881,4.8819,4.8817,4.8819,4.8823,4.8824,4.8827,4.8828,4.8831,4.8828,4.8826,4.8826,4.8826,4.8829,4.8818,4.8816,4.8815,4.8812,4.881,4.8828,4.8828,4.8828,4.8828,0,4.8791,4.8791,4.8789,4.8793,4.8794,4.8793,4.8799,4.88,4.8804,4.8808,4.8807,4.8811,4.8812,4.8812,4.8816,4.881,4.8811,4.8816,4.8823,4.8813,4.8809,4.8808,4.8827,4.8827,4.8828,4.8828,0,0,4.8771,4.878,4.8779,4.8781,4.8787,4.8787,4.8786,4.8788,4.8788,4.8791,4.8789,4.879,4.8795,4.8796,4.88,4.8798,4.879,4.8803,4.8804,4.88,4.8782,4.8779,4.8777,4.8793,4.8793,4.8793,4.8782,0,4.876,4.8758,4.8765,4.8762,4.8762,4.8771,4.877,4.8773,4.8777,4.8777,4.8781,4.8782,4.8788,4.8789,4.8787,4.8791,4.8786,4.8792,4.8792,4.8791,4.879,4.8775,4.8771,4.8761,4.8781,4.8781,4.8781,0,4.8747,4.8749,4.8746,4.8752,4.8753,4.8751,4.8754,4.8755,4.8758,4.8761,4.8763,4.8769,4.8768,4.8774,4.8772,4.8776,4.8777,4.8779,4.8778,4.8778,4.8785,4.8774,4.8758,4.8756,4.8779,4.8779,4.8779,0,4.8732,4.8735,4.8733,4.8735,4.8742,4.8741,4.8744,4.8748,4.8749,4.8752,4.8752,4.8754,4.8755,4.8756,4.8762,4.8766,4.876,4.8767,4.8762,4.8761,4.8759,4.8759,4.8742,4.876,4.876,4.876,4.876,0,4.8719,4.8716,4.8727,4.8726,4.8723,4.8731,4.8728,4.8732,4.8736,4.8736,4.8743,4.8743,4.8751,4.8751,4.8755,4.8753,4.8754,4.8756,4.8757,4.8755,4.8754,4.8755,4.8755,4.876,4.876,4.876,4.876,0,4.8702,4.8709,4.8707,4.8715,4.8717,4.8714,4.8721,4.872,4.8724,4.8724,4.8724,4.8731,4.8732,4.8738,4.874,4.8743,4.8739,4.8742,4.8738,4.8738,4.8733,4.8733,4.8715,4.8713,4.8733,4.8733,4.8732,0,4.8693,4.8691,4.8698,4.8699,4.8702,4.8703,4.8704,4.8712,4.8712,4.8717,4.8716,4.8717,4.8719,4.8719,4.8724,4.8726,4.8728,4.8722,4.8728,4.8726,4.8728,4.8728,4.8727,4.872,4.872,4.872,4.872,0,4.8676,4.8679,4.8681,4.8684,4.8685,4.8688,4.8691,4.8691,4.87,4.87,4.8701,4.8703,4.8705,4.8706,4.8708,4.8711,4.8717,4.8718,4.8716,4.8714,4.8712,4.8713,4.8733,4.8718,4.8718,4.8718,4.8718,4.8718,4.8662,4.8661,4.8666,4.8668,4.8671,4.8674,4.8674,4.8679,4.868,4.8683,4.8687,4.8688,4.8692,4.8696,4.8698,4.8698,4.8701,4.87,4.8699,4.8699,4.8698,4.8712,4.8699,4.8699,4.8699,4.8699,4.8699,0,4.8645,4.8649,4.8651,4.8655,4.8657,4.8662,4.8666,4.8667,4.8667,4.8671,4.8672,4.8673,4.8675,4.868,4.8682,4.8681,4.8684,4.8681,4.8681,4.8682,4.8695,4.8695,4.8679,4.8679,4.8679,4.8679,4.8679,4.8679,4.8637,4.8636,4.864,4.864,4.8644,4.8645,4.8647,4.8649,4.8652,4.8653,4.8655,4.8659,4.8663,4.8665,4.8666,4.8668,4.8668,4.8665,4.8667,4.8679,4.8681,4.8683,4.8683,4.8665,4.8665,4.8654,4.8654,4.8654]}]]